Tracking 19854 objects as of 22-Sep-2019
HD Live streaming from Space Station
objects crossing your sky now

SL-14 DEB

Track SL-14 DEB now!
10-day predictions


NORAD ID: 39986
Int'l Code: 1987-068DN
Perigee: 923.5 km
Apogee: 983.1 km
Inclination: 82.5 °
Period: 104.0 minutes
Semi major axis: 7324 km
RCS: 0.0017 m2 (small)
Launch date: August 18, 1987
Source: Commonwealth of Independent States (former USSR) (CIS)
Launch site: PLESETSK MISSILE AND SPACE COMPLEX (PKMTR)

Note: This is SATELLITE DEBRIS
aabbcc
Your satellite tracking list
Your tracking list is empty




NASA's NSSDC Master Catalog

Two Line Element Set (TLE):
1 39986U 87068DN  19257.26818378  .00000222  00000-0  18214-3 0  9996
2 39986  82.4994  88.5108 0040637  40.5151  84.1402 13.85013124580807
Source of the keplerian elements: AFSPC